Location: Staunton
(38.1490°N, 79.0720°W)
Time: 22:43:51
(UTC-05:00)

ISS - Pass Details

Date: 20 November 2017
Orbit: 402 x 407 km, 51.6° (Epoch: 13 December)

Event Time Altitude Azimuth Distance (km) Brightness Sun altitude
Exits shadow 05:32:01 14° 205° (SSW) 1,230 -1.5 -17.8°
Drops below altitude 10° 05:32:58 10° 189° (S) 1,444 -1.0 -17.6°
Sets 05:35:30 0° 167° (SSE) 2,279 0.3 -17.1°
